Location: La Coruña
(43.3623°N, 8.4115°W)
Time: 16:26:49
(UTC+01:00)

STARLINK-1071 - Pass Details

Date: 17 January 2020
Orbit: 345 x 354 km, 53.0° (Epoch: 18 February)

Event Time Altitude Azimuth Distance (km) Brightness Sun altitude
Rises 20:05:56 0° 247° (WSW) 2,155 8.2 -18.0°
Reaches altitude 10° 20:07:59 10° 253° (WSW) 1,316 6.8 -18.4°
Maximum altitude 20:10:50 47° 329° (NNW) 478 3.4 -18.9°
Enters shadow 20:10:59 46° 341° (NNW) 482 3.3 -18.9°
